GFSGBSN_prec_pwat_231.txt.gz
Precipitable_Water
0.86 0.88 0.87 0.85 0.83 0.81 0.80 0.80 0.80 0.79 0.78 0.78 0.77 0.75 0.73 0.71 0.69 0.69 0.68 0.65 0.64 0.61 0.62 0.69 0.58 0.46 0.35 0.23 0.23 0.42 0.39 0.37 0.32 0.39 0.70 0.76 0.63 0.63 0.64 0.77 0.81 0.73 0.76 0.70 0.69 0.63 0.74
0.85 0.85 0.87 0.87 0.84 0.83 0.82 0.80 0.79 0.79 0.79 0.78 0.77 0.75 0.74 0.71 0.69 0.67 0.68 0.64 0.65 0.60 0.61 0.69 0.67 0.49 0.27 0.12 0.31 0.39 0.38 0.34 0.26 0.42 0.72 0.70 0.63 0.67 0.72 0.73 0.74 0.79 0.79 0.65 0.71 0.65 0.84
0.89 0.85 0.83 0.85 0.86 0.84 0.82 0.81 0.80 0.79 0.79 0.79 0.78 0.75 0.73 0.71 0.68 0.65 0.66 0.64 0.64 0.58 0.60 0.70 0.70 0.48 0.26 0.14 0.32 0.41 0.36 0.40 0.26 0.46 0.68 0.67 0.68 0.68 0.74 0.68 0.76 0.71 0.62 0.59 0.62 0.75 0.81
0.93 0.91 0.87 0.85 0.87 0.86 0.82 0.79 0.79 0.79 0.78 0.80 0.79 0.76 0.74 0.71 0.68 0.64 0.62 0.61 0.61 0.57 0.58 0.72 0.71 0.50 0.16 0.26 0.34 0.29 0.33 0.45 0.36 0.56 0.71 0.64 0.68 0.75 0.68 0.74 0.74 0.67 0.61 0.50 0.62 0.77 0.79
0.95 0.93 0.92 0.89 0.87 0.86 0.83 0.80 0.79 0.79 0.79 0.79 0.79 0.77 0.74 0.72 0.69 0.63 0.60 0.58 0.59 0.58 0.64 0.71 0.56 0.45 0.19 0.34 0.25 0.27 0.31 0.32 0.41 0.52 0.69 0.65 0.66 0.68 0.66 0.60 0.56 0.61 0.52 0.54 0.65 0.81 0.79
1.02 0.98 0.94 0.92 0.89 0.85 0.82 0.83 0.80 0.80 0.79 0.79 0.79 0.77 0.74 0.72 0.69 0.63 0.57 0.58 0.60 0.60 0.61 0.68 0.62 0.43 0.36 0.25 0.25 0.23 0.28 0.36 0.39 0.47 0.56 0.53 0.53 0.53 0.55 0.57 0.46 0.54 0.57 0.65 0.66 0.73 0.75
1.07 1.04 0.99 0.92 0.90 0.85 0.80 0.82 0.83 0.81 0.81 0.81 0.80 0.77 0.75 0.73 0.70 0.64 0.56 0.51 0.43 0.44 0.52 0.33 0.38 0.33 0.32 0.29 0.26 0.17 0.25 0.34 0.39 0.41 0.38 0.43 0.39 0.39 0.53 0.61 0.64 0.66 0.63 0.64 0.73 0.80 0.74
1.08 1.07 1.04 0.97 0.90 0.84 0.78 0.82 0.84 0.83 0.82 0.82 0.81 0.79 0.77 0.74 0.71 0.66 0.57 0.50 0.54 0.58 0.41 0.52 0.42 0.42 0.36 0.32 0.13 0.16 0.27 0.27 0.31 0.32 0.40 0.40 0.31 0.51 0.59 0.63 0.65 0.67 0.65 0.61 0.70 0.81 0.66
1.11 1.09 1.07 1.02 0.91 0.84 0.77 0.80 0.85 0.84 0.82 0.82 0.82 0.81 0.79 0.77 0.73 0.61 0.45 0.43 0.64 0.60 0.37 0.38 0.41 0.41 0.36 0.27 0.17 0.20 0.26 0.27 0.30 0.34 0.36 0.34 0.37 0.55 0.57 0.60 0.66 0.59 0.58 0.56 0.67 0.69 0.68
1.08 1.10 1.09 1.04 0.97 0.80 0.76 0.80 0.87 0.87 0.84 0.83 0.83 0.83 0.81 0.79 0.61 0.60 0.44 0.48 0.55 0.59 0.27 0.24 0.32 0.40 0.40 0.28 0.22 0.27 0.29 0.27 0.30 0.32 0.38 0.37 0.51 0.55 0.54 0.54 0.68 0.54 0.51 0.57 0.59 0.56 0.49
1.05 1.07 1.09 1.05 0.99 0.79 0.76 0.80 0.90 0.91 0.88 0.85 0.84 0.85 0.84 0.81 0.72 0.54 0.57 0.56 0.55 0.54 0.17 0.40 0.40 0.54 0.42 0.25 0.21 0.22 0.31 0.28 0.26 0.33 0.40 0.38 0.49 0.53 0.56 0.52 0.54 0.46 0.54 0.55 0.57 0.52 0.50
1.07 1.05 1.07 1.07 0.99 0.81 0.73 0.81 0.95 0.94 0.88 0.87 0.88 0.87 0.85 0.75 0.70 0.66 0.67 0.65 0.57 0.32 0.17 0.43 0.50 0.40 0.29 0.26 0.22 0.28 0.29 0.32 0.29 0.29 0.35 0.36 0.52 0.57 0.61 0.58 0.53 0.44 0.48 0.54 0.54 0.50 0.36
1.08 1.06 1.05 1.06 0.98 0.83 0.72 0.82 0.95 0.93 0.88 0.92 0.89 0.86 0.82 0.80 0.55 0.74 0.66 0.53 0.32 0.22 0.38 0.43 0.40 0.41 0.34 0.22 0.22 0.23 0.28 0.27 0.25 0.23 0.24 0.30 0.36 0.45 0.51 0.49 0.53 0.39 0.41 0.35 0.34 0.36 0.44
1.08 1.06 1.05 1.05 0.95 0.82 0.71 0.84 0.94 0.92 0.90 0.91 0.85 0.82 0.82 0.76 0.81 0.73 0.59 0.40 0.22 0.19 0.32 0.49 0.47 0.42 0.28 0.24 0.23 0.26 0.30 0.29 0.30 0.30 0.25 0.24 0.24 0.36 0.46 0.44 0.41 0.39 0.38 0.31 0.29 0.37 0.50
1.10 1.07 1.06 1.05 0.94 0.80 0.70 0.87 0.94 0.90 0.88 0.85 0.81 0.74 0.69 0.73 0.80 0.74 0.47 0.28 0.22 0.34 0.45 0.46 0.54 0.44 0.35 0.26 0.20 0.24 0.30 0.30 0.30 0.31 0.24 0.23 0.25 0.38 0.43 0.47 0.42 0.36 0.39 0.46 0.40 0.51 0.47
1.10 1.08 1.07 1.04 0.92 0.80 0.70 0.93 0.92 0.86 0.83 0.83 0.70 0.73 0.69 0.71 0.77 0.64 0.42 0.28 0.31 0.48 0.54 0.59 0.49 0.45 0.35 0.26 0.20 0.22 0.25 0.29 0.29 0.31 0.31 0.27 0.24 0.34 0.42 0.42 0.39 0.33 0.44 0.46 0.49 0.41 0.44
1.11 1.08 1.07 1.04 0.90 0.81 0.69 0.94 0.91 0.86 0.83 0.86 0.76 0.68 0.72 0.72 0.64 0.48 0.31 0.30 0.41 0.56 0.60 0.59 0.53 0.46 0.36 0.29 0.25 0.20 0.21 0.27 0.31 0.29 0.29 0.28 0.27 0.29 0.33 0.34 0.31 0.30 0.35 0.49 0.54 0.53 0.46
1.08 1.07 1.08 1.02 0.90 0.81 0.68 0.91 0.91 0.88 0.85 0.97 0.88 0.62 0.83 0.76 0.40 0.42 0.31 0.32 0.52 0.53 0.59 0.59 0.67 0.58 0.47 0.33 0.26 0.23 0.22 0.27 0.30 0.30 0.24 0.27 0.26 0.24 0.28 0.38 0.39 0.38 0.32 0.38 0.41 0.45 0.58
1.06 1.07 1.07 0.96 0.94 0.81 0.66 0.84 0.93 0.90 0.91 0.84 0.77 0.72 0.77 0.68 0.34 0.34 0.35 0.34 0.51 0.50 0.53 0.55 0.55 0.58 0.57 0.42 0.32 0.28 0.29 0.35 0.32 0.29 0.26 0.31 0.26 0.21 0.24 0.35 0.43 0.40 0.37 0.41 0.46 0.47 0.58
1.07 1.05 1.01 0.99 0.97 0.83 0.64 0.78 0.93 0.90 0.93 0.96 0.79 0.63 0.57 0.53 0.47 0.49 0.49 0.51 0.42 0.52 0.49 0.52 0.56 0.59 0.64 0.53 0.49 0.32 0.31 0.32 0.35 0.33 0.34 0.32 0.29 0.22 0.22 0.38 0.51 0.44 0.49 0.51 0.46 0.45 0.51
1.07 0.99 0.95 1.01 0.98 0.87 0.65 0.73 0.91 0.89 0.92 0.89 0.89 0.92 0.88 0.55 0.36 0.49 0.58 0.62 0.55 0.48 0.52 0.51 0.51 0.66 0.79 0.74 0.59 0.52 0.56 0.39 0.38 0.38 0.35 0.30 0.24 0.24 0.32 0.42 0.47 0.47 0.50 0.50 0.52 0.52 0.39
1.07 0.94 0.95 0.98 0.97 0.89 0.69 0.68 0.85 0.89 0.96 0.93 0.83 0.91 0.90 0.69 0.69 0.57 0.55 0.51 0.50 0.51 0.52 0.53 0.62 0.75 0.80 0.71 0.71 0.59 0.63 0.54 0.53 0.48 0.37 0.36 0.23 0.23 0.24 0.37 0.44 0.48 0.47 0.51 0.54 0.68 0.70
1.07 0.98 0.93 0.93 0.93 0.87 0.78 0.66 0.74 0.90 0.89 0.86 1.00 1.06 0.89 0.71 0.80 0.74 0.73 0.71 0.61 0.70 0.79 0.80 0.80 0.70 0.71 0.77 0.85 0.85 0.81 0.76 0.70 0.60 0.50 0.37 0.26 0.22 0.20 0.30 0.40 0.44 0.47 0.52 0.59 0.70 0.66
1.08 1.01 0.94 0.90 0.89 0.88 0.81 0.75 0.70 0.78 0.91 0.79 0.87 0.89 0.74 0.70 0.80 0.81 0.73 0.76 0.65 0.74 0.76 0.76 0.79 0.73 0.89 1.03 0.99 0.90 0.82 0.76 0.73 0.72 0.71 0.44 0.32 0.28 0.23 0.31 0.28 0.50 0.64 0.70 0.65 0.89 0.80
1.06 1.05 0.95 0.91 0.89 0.87 0.83 0.80 0.74 0.70 0.80 0.82 0.81 0.82 0.75 0.66 0.85 0.86 0.84 0.73 0.72 0.89 1.11 0.78 0.77 0.85 0.99 0.84 0.70 0.64 0.70 0.68 0.68 0.74 0.73 0.69 0.52 0.35 0.28 0.28 0.33 0.53 0.64 0.73 0.72 0.78 0.95
1.01 1.05 1.02 0.94 0.93 0.91 0.87 0.81 0.77 0.70 0.70 0.75 0.89 0.90 0.78 0.69 0.80 0.87 0.82 0.87 0.85 0.76 0.78 0.81 0.83 0.86 0.95 0.66 0.68 0.58 0.58 0.68 0.64 0.66 0.80 0.76 0.72 0.53 0.42 0.32 0.31 0.59 0.77 0.86 0.91 0.67 0.95
0.87 0.90 0.95 0.94 0.94 0.92 0.90 0.84 0.80 0.71 0.67 0.69 0.80 0.94 0.75 0.64 0.84 0.91 0.79 0.82 0.97 0.87 0.95 0.85 0.84 0.87 0.99 0.73 0.69 0.67 0.66 0.85 0.64 0.68 0.67 0.71 0.64 0.56 0.51 0.55 0.63 0.82 0.88 0.89 0.57 0.72 0.99
0.75 0.77 0.82 0.90 0.90 0.84 0.83 0.83 0.82 0.74 0.67 0.63 0.73 0.96 0.86 0.64 0.71 0.89 0.90 0.74 0.75 0.83 0.75 0.85 0.93 0.92 0.95 0.78 0.84 0.82 0.77 0.80 0.77 0.83 0.81 0.82 0.75 0.62 0.59 0.59 0.52 0.89 0.80 0.64 0.84 0.96 1.00
0.73 0.72 0.77 0.84 0.87 0.83 0.79 0.78 0.79 0.76 0.66 0.65 0.57 0.85 0.94 0.75 0.62 0.88 0.93 0.91 0.78 0.83 0.79 0.85 0.81 0.92 0.95 0.87 0.77 0.91 0.76 0.75 0.71 0.64 0.90 0.77 0.87 0.73 0.72 0.71 0.89 1.00 0.90 0.94 0.94 0.87 0.85

GFSGBSN_prec_pwat_234.txt.gz
Precipitable_Water
0.85 0.82 0.81 0.82 0.84 0.83 0.81 0.79 0.78 0.76 0.76 0.75 0.75 0.74 0.72 0.70 0.69 0.68 0.67 0.66 0.63 0.62 0.60 0.62 0.67 0.50 0.36 0.19 0.16 0.35 0.38 0.41 0.37 0.36 0.60 0.75 0.71 0.68 0.64 0.69 0.90 0.83 0.77 0.79 0.72 0.69 0.77
0.89 0.87 0.84 0.82 0.81 0.83 0.81 0.78 0.77 0.77 0.76 0.75 0.75 0.74 0.72 0.70 0.68 0.67 0.65 0.64 0.62 0.62 0.59 0.62 0.69 0.59 0.27 0.09 0.21 0.36 0.39 0.35 0.27 0.29 0.57 0.76 0.73 0.71 0.66 0.67 0.73 0.80 0.77 0.70 0.68 0.71 0.85
0.90 0.89 0.88 0.86 0.83 0.81 0.82 0.79 0.76 0.76 0.76 0.75 0.76 0.75 0.72 0.71 0.69 0.66 0.63 0.63 0.61 0.62 0.57 0.62 0.70 0.60 0.28 0.11 0.35 0.39 0.42 0.38 0.27 0.32 0.60 0.75 0.75 0.68 0.67 0.63 0.76 0.75 0.67 0.61 0.63 0.72 0.85
0.98 0.95 0.90 0.88 0.86 0.83 0.82 0.82 0.79 0.77 0.76 0.76 0.76 0.76 0.74 0.71 0.69 0.66 0.61 0.60 0.60 0.59 0.56 0.63 0.71 0.58 0.22 0.20 0.31 0.27 0.32 0.32 0.41 0.41 0.63 0.73 0.70 0.63 0.66 0.74 0.69 0.64 0.64 0.51 0.61 0.66 0.84
1.00 0.99 0.96 0.91 0.87 0.86 0.83 0.79 0.80 0.79 0.77 0.77 0.76 0.76 0.74 0.72 0.70 0.67 0.60 0.56 0.57 0.58 0.60 0.65 0.55 0.46 0.24 0.31 0.23 0.24 0.30 0.27 0.37 0.47 0.68 0.69 0.58 0.61 0.65 0.59 0.56 0.61 0.51 0.53 0.57 0.77 0.80
1.02 1.03 1.01 0.98 0.90 0.87 0.84 0.79 0.79 0.81 0.79 0.78 0.77 0.77 0.76 0.74 0.71 0.67 0.58 0.56 0.57 0.58 0.58 0.64 0.56 0.43 0.35 0.22 0.25 0.22 0.28 0.31 0.29 0.46 0.59 0.52 0.47 0.51 0.53 0.54 0.44 0.50 0.56 0.58 0.62 0.72 0.79
1.03 1.05 1.05 1.01 0.98 0.88 0.85 0.78 0.78 0.82 0.81 0.79 0.78 0.78 0.76 0.75 0.73 0.69 0.55 0.48 0.36 0.36 0.43 0.27 0.31 0.35 0.33 0.36 0.31 0.19 0.26 0.28 0.30 0.37 0.41 0.45 0.33 0.38 0.53 0.60 0.60 0.59 0.61 0.62 0.71 0.80 0.76
0.99 1.03 1.06 1.05 1.00 0.94 0.84 0.77 0.77 0.83 0.82 0.80 0.79 0.79 0.78 0.76 0.73 0.70 0.57 0.43 0.52 0.49 0.32 0.46 0.41 0.41 0.40 0.39 0.23 0.17 0.27 0.22 0.25 0.25 0.39 0.35 0.29 0.50 0.57 0.62 0.62 0.60 0.60 0.64 0.73 0.78 0.75
1.06 1.03 1.06 1.06 1.04 0.99 0.83 0.75 0.77 0.83 0.83 0.81 0.80 0.80 0.79 0.77 0.74 0.64 0.47 0.49 0.70 0.56 0.35 0.30 0.42 0.35 0.37 0.36 0.21 0.12 0.23 0.24 0.24 0.24 0.28 0.26 0.36 0.50 0.51 0.55 0.57 0.59 0.61 0.62 0.60 0.70 0.80
1.09 1.08 1.06 1.06 1.06 1.00 0.86 0.72 0.77 0.85 0.85 0.82 0.81 0.81 0.81 0.78 0.61 0.60 0.43 0.60 0.64 0.55 0.22 0.19 0.26 0.31 0.37 0.35 0.20 0.22 0.25 0.26 0.26 0.24 0.29 0.31 0.42 0.48 0.49 0.49 0.57 0.54 0.64 0.62 0.60 0.58 0.55
1.10 1.08 1.06 1.05 1.05 0.99 0.87 0.71 0.78 0.87 0.88 0.86 0.85 0.85 0.84 0.80 0.67 0.53 0.60 0.65 0.60 0.50 0.10 0.37 0.29 0.51 0.34 0.27 0.22 0.21 0.26 0.26 0.23 0.26 0.31 0.31 0.40 0.44 0.44 0.48 0.57 0.59 0.64 0.54 0.59 0.56 0.55
1.10 1.07 1.06 1.05 1.05 0.97 0.83 0.71 0.80 0.90 0.91 0.88 0.89 0.87 0.85 0.76 0.69 0.67 0.69 0.66 0.53 0.25 0.11 0.37 0.43 0.37 0.31 0.29 0.23 0.23 0.24 0.28 0.29 0.27 0.29 0.32 0.49 0.48 0.50 0.57 0.61 0.58 0.51 0.50 0.49 0.50 0.40
1.09 1.07 1.05 1.04 1.03 0.94 0.79 0.71 0.86 0.92 0.90 0.91 0.90 0.86 0.82 0.81 0.56 0.79 0.74 0.55 0.27 0.18 0.37 0.37 0.41 0.45 0.37 0.26 0.23 0.21 0.22 0.21 0.21 0.20 0.21 0.30 0.34 0.41 0.48 0.48 0.52 0.53 0.42 0.33 0.33 0.35 0.38
1.09 1.08 1.05 1.04 0.99 0.89 0.75 0.71 0.90 0.91 0.91 0.92 0.88 0.84 0.81 0.77 0.79 0.80 0.63 0.39 0.17 0.19 0.34 0.48 0.48 0.47 0.37 0.28 0.23 0.22 0.21 0.21 0.24 0.25 0.24 0.22 0.26 0.35 0.41 0.41 0.43 0.45 0.40 0.32 0.25 0.29 0.41
1.07 1.07 1.05 1.05 0.97 0.85 0.73 0.73 0.92 0.89 0.89 0.88 0.83 0.76 0.69 0.74 0.78 0.76 0.48 0.25 0.18 0.32 0.41 0.46 0.43 0.39 0.38 0.31 0.23 0.22 0.22 0.23 0.26 0.26 0.22 0.23 0.21 0.37 0.41 0.44 0.42 0.40 0.34 0.43 0.35 0.43 0.41
1.07 1.04 1.05 1.06 0.93 0.85 0.71 0.80 0.93 0.86 0.84 0.85 0.69 0.71 0.66 0.77 0.80 0.63 0.41 0.27 0.25 0.45 0.54 0.56 0.48 0.43 0.38 0.32 0.23 0.21 0.22 0.27 0.29 0.32 0.32 0.27 0.24 0.32 0.40 0.40 0.44 0.42 0.41 0.39 0.44 0.32 0.32
1.06 1.04 1.06 1.04 0.92 0.86 0.69 0.80 0.93 0.86 0.81 0.89 0.78 0.63 0.74 0.75 0.75 0.51 0.31 0.32 0.29 0.52 0.56 0.54 0.50 0.52 0.47 0.39 0.29 0.20 0.20 0.26 0.32 0.31 0.32 0.30 0.27 0.26 0.32 0.30 0.32 0.39 0.35 0.39 0.42 0.45 0.36
1.04 1.04 1.05 0.97 0.96 0.88 0.67 0.75 0.93 0.86 0.84 0.91 0.80 0.59 0.85 0.80 0.42 0.42 0.34 0.33 0.39 0.45 0.54 0.56 0.56 0.56 0.53 0.53 0.36 0.25 0.20 0.23 0.32 0.32 0.27 0.27 0.27 0.23 0.25 0.33 0.35 0.37 0.39 0.38 0.32 0.35 0.50
1.06 1.02 0.96 0.97 0.98 0.91 0.67 0.71 0.92 0.88 0.91 0.86 0.70 0.71 0.83 0.73 0.35 0.33 0.38 0.34 0.40 0.41 0.53 0.56 0.52 0.60 0.61 0.54 0.43 0.33 0.27 0.26 0.28 0.31 0.27 0.28 0.25 0.22 0.25 0.30 0.38 0.35 0.41 0.43 0.40 0.43 0.42
1.06 0.99 0.91 0.97 0.99 0.91 0.70 0.69 0.87 0.89 0.87 0.88 0.77 0.59 0.61 0.63 0.58 0.42 0.42 0.39 0.43 0.65 0.59 0.63 0.59 0.58 0.60 0.63 0.67 0.50 0.43 0.31 0.32 0.31 0.34 0.33 0.27 0.24 0.22 0.27 0.36 0.42 0.43 0.49 0.43 0.38 0.45
1.03 1.00 0.90 0.94 0.97 0.92 0.76 0.67 0.82 0.87 0.96 0.94 0.84 0.84 0.79 0.54 0.58 0.57 0.53 0.50 0.54 0.56 0.66 0.69 0.61 0.61 0.62 0.55 0.59 0.55 0.56 0.43 0.45 0.47 0.37 0.32 0.26 0.28 0.28 0.33 0.39 0.41 0.46 0.48 0.50 0.49 0.47
1.04 1.03 0.93 0.89 0.91 0.90 0.82 0.68 0.73 0.85 1.00 0.90 0.71 0.83 0.89 0.78 0.78 0.66 0.58 0.51 0.61 0.69 0.68 0.64 0.62 0.64 0.63 0.58 0.65 0.59 0.69 0.59 0.49 0.52 0.42 0.40 0.29 0.30 0.28 0.32 0.34 0.34 0.48 0.49 0.58 0.57 0.58
1.02 1.04 0.98 0.90 0.86 0.88 0.86 0.79 0.69 0.79 0.84 0.77 0.86 1.05 0.91 0.76 0.75 0.67 0.68 0.70 0.70 0.75 0.76 0.76 0.77 0.70 0.63 0.64 0.69 0.81 0.91 0.82 0.71 0.58 0.49 0.46 0.36 0.32 0.23 0.29 0.32 0.31 0.47 0.57 0.58 0.63 0.67
0.99 1.02 1.02 0.94 0.88 0.87 0.87 0.82 0.77 0.70 0.79 0.79 0.82 0.94 0.78 0.64 0.71 0.75 0.77 0.77 0.72 0.78 0.70 0.77 0.77 0.75 0.80 0.94 0.92 0.98 0.92 0.83 0.81 0.73 0.71 0.54 0.47 0.39 0.25 0.25 0.19 0.38 0.72 0.74 0.70 0.76 0.75
0.91 0.95 1.00 0.99 0.94 0.92 0.90 0.84 0.81 0.75 0.69 0.71 0.84 0.73 0.65 0.57 0.73 0.76 0.80 0.77 0.84 0.88 0.71 0.70 0.80 0.88 1.05 0.86 0.66 0.59 0.63 0.66 0.71 0.75 0.70 0.72 0.59 0.41 0.28 0.24 0.32 0.51 0.65 0.70 0.66 0.68 0.84
0.75 0.77 0.80 0.90 0.93 0.93 0.91 0.89 0.83 0.78 0.71 0.64 0.82 0.92 0.70 0.60 0.70 0.78 0.75 0.82 0.69 0.79 0.74 0.69 0.91 1.04 1.02 0.82 0.65 0.54 0.44 0.59 0.53 0.60 0.74 0.74 0.74 0.54 0.43 0.35 0.26 0.51 0.75 0.88 0.88 0.65 1.01
0.75 0.72 0.72 0.78 0.88 0.89 0.84 0.82 0.82 0.81 0.72 0.64 0.67 0.88 0.79 0.56 0.73 0.80 0.70 0.76 0.85 0.88 0.75 0.84 0.88 0.96 1.02 0.81 0.63 0.61 0.57 0.71 0.56 0.57 0.60 0.61 0.67 0.62 0.51 0.48 0.54 0.70 0.79 0.90 0.58 0.68 1.05
0.72 0.72 0.72 0.76 0.81 0.84 0.81 0.78 0.78 0.79 0.74 0.64 0.66 0.85 0.78 0.64 0.60 0.79 0.83 0.81 0.79 0.86 0.76 0.88 0.94 0.92 0.85 0.73 0.71 0.70 0.65 0.70 0.66 0.72 0.66 0.62 0.61 0.68 0.63 0.56 0.53 0.89 0.83 0.65 0.78 0.99 1.05
0.70 0.70 0.70 0.72 0.74 0.76 0.77 0.76 0.75 0.77 0.77 0.68 0.52 0.75 0.81 0.73 0.61 0.75 0.84 0.93 0.86 0.80 0.80 0.90 0.94 0.96 0.95 0.80 0.79 0.80 0.67 0.75 0.73 0.62 0.87 0.65 0.77 0.76 0.79 0.74 0.92 0.95 0.91 1.00 0.96 0.88 0.90

GFSGBSN_prec_pwat_237.txt.gz
Precipitable_Water
0.86 0.85 0.85 0.83 0.80 0.78 0.79 0.78 0.75 0.74 0.74 0.73 0.74 0.74 0.73 0.70 0.69 0.68 0.67 0.67 0.64 0.62 0.59 0.58 0.63 0.62 0.37 0.16 0.16 0.29 0.34 0.43 0.44 0.35 0.64 0.76 0.73 0.72 0.63 0.68 0.77 0.77 0.85 0.81 0.85 0.81 0.85
0.92 0.89 0.86 0.84 0.83 0.80 0.78 0.80 0.78 0.74 0.74 0.73 0.73 0.73 0.73 0.71 0.69 0.68 0.67 0.64 0.63 0.61 0.60 0.58 0.64 0.67 0.32 0.09 0.19 0.35 0.37 0.36 0.31 0.27 0.59 0.75 0.75 0.75 0.67 0.67 0.70 0.71 0.80 0.75 0.71 0.76 0.88
0.93 0.94 0.92 0.89 0.83 0.82 0.80 0.78 0.79 0.78 0.75 0.74 0.73 0.72 0.72 0.71 0.69 0.68 0.66 0.62 0.62 0.61 0.59 0.57 0.65 0.63 0.35 0.12 0.32 0.35 0.33 0.35 0.31 0.31 0.57 0.73 0.75 0.68 0.67 0.63 0.71 0.70 0.67 0.63 0.64 0.70 0.84
0.94 0.96 0.96 0.93 0.90 0.83 0.81 0.79 0.78 0.78 0.76 0.74 0.73 0.73 0.73 0.71 0.69 0.68 0.65 0.60 0.59 0.59 0.58 0.59 0.65 0.59 0.28 0.22 0.28 0.31 0.30 0.29 0.34 0.44 0.59 0.65 0.70 0.65 0.63 0.70 0.66 0.62 0.65 0.52 0.62 0.68 0.89
0.91 0.96 0.98 0.98 0.94 0.90 0.82 0.81 0.78 0.77 0.77 0.76 0.74 0.73 0.73 0.72 0.70 0.68 0.63 0.57 0.56 0.57 0.60 0.61 0.52 0.45 0.26 0.35 0.21 0.28 0.28 0.28 0.32 0.52 0.61 0.65 0.65 0.62 0.65 0.53 0.53 0.60 0.50 0.53 0.57 0.71 0.80
0.92 0.93 0.98 1.00 0.99 0.95 0.87 0.81 0.79 0.76 0.78 0.78 0.75 0.74 0.74 0.73 0.71 0.69 0.62 0.56 0.57 0.58 0.58 0.61 0.54 0.36 0.36 0.23 0.24 0.25 0.30 0.30 0.25 0.49 0.55 0.59 0.51 0.49 0.51 0.53 0.43 0.48 0.51 0.57 0.59 0.70 0.79
0.98 1.00 0.99 1.00 1.00 0.99 0.94 0.81 0.80 0.76 0.78 0.79 0.77 0.75 0.75 0.74 0.73 0.71 0.58 0.47 0.33 0.31 0.39 0.25 0.28 0.29 0.34 0.35 0.34 0.21 0.25 0.26 0.24 0.37 0.41 0.52 0.40 0.33 0.48 0.57 0.55 0.59 0.59 0.60 0.71 0.79 0.76
1.05 1.04 1.04 1.02 1.01 1.02 0.98 0.87 0.79 0.76 0.78 0.81 0.78 0.76 0.77 0.76 0.74 0.72 0.61 0.35 0.44 0.43 0.28 0.40 0.37 0.37 0.42 0.41 0.26 0.20 0.23 0.22 0.20 0.26 0.42 0.38 0.28 0.38 0.54 0.59 0.56 0.58 0.57 0.59 0.73 0.76 0.75
1.08 1.06 1.05 1.04 1.03 1.03 1.00 0.92 0.77 0.75 0.79 0.82 0.79 0.78 0.78 0.77 0.75 0.65 0.51 0.48 0.65 0.58 0.28 0.28 0.39 0.35 0.36 0.39 0.24 0.17 0.20 0.23 0.21 0.23 0.34 0.31 0.32 0.48 0.54 0.54 0.54 0.56 0.55 0.57 0.63 0.71 0.78
1.05 1.06 1.05 1.04 1.03 1.03 0.99 0.91 0.73 0.75 0.80 0.83 0.81 0.80 0.81 0.79 0.62 0.62 0.48 0.64 0.63 0.55 0.20 0.17 0.24 0.30 0.38 0.36 0.22 0.23 0.20 0.24 0.22 0.23 0.30 0.34 0.47 0.47 0.49 0.50 0.55 0.51 0.62 0.59 0.58 0.55 0.52
1.05 1.05 1.06 1.04 1.03 1.02 0.97 0.86 0.71 0.77 0.83 0.85 0.84 0.85 0.83 0.80 0.65 0.53 0.60 0.69 0.56 0.48 0.08 0.31 0.27 0.48 0.36 0.27 0.22 0.18 0.23 0.25 0.21 0.21 0.27 0.28 0.37 0.41 0.40 0.50 0.55 0.53 0.61 0.59 0.55 0.59 0.61
1.06 1.06 1.06 1.03 1.03 1.00 0.92 0.76 0.71 0.81 0.87 0.88 0.89 0.88 0.84 0.76 0.70 0.71 0.72 0.66 0.51 0.22 0.08 0.31 0.31 0.31 0.26 0.26 0.23 0.21 0.22 0.28 0.28 0.25 0.26 0.32 0.44 0.43 0.48 0.52 0.51 0.54 0.52 0.54 0.53 0.50 0.42
1.06 1.06 1.04 1.03 1.02 0.95 0.87 0.71 0.74 0.87 0.89 0.91 0.92 0.87 0.81 0.81 0.55 0.78 0.74 0.49 0.23 0.15 0.30 0.36 0.37 0.41 0.34 0.23 0.24 0.21 0.20 0.20 0.20 0.19 0.19 0.28 0.34 0.42 0.45 0.41 0.46 0.45 0.45 0.37 0.34 0.35 0.34
1.07 1.05 1.03 1.05 1.02 0.90 0.81 0.68 0.82 0.91 0.91 0.93 0.89 0.84 0.80 0.79 0.80 0.81 0.63 0.36 0.16 0.19 0.33 0.46 0.48 0.45 0.37 0.31 0.25 0.22 0.20 0.18 0.22 0.23 0.21 0.23 0.25 0.38 0.45 0.41 0.43 0.43 0.43 0.35 0.24 0.27 0.35
1.08 1.04 1.04 1.06 1.00 0.87 0.78 0.67 0.89 0.90 0.91 0.91 0.86 0.80 0.70 0.75 0.82 0.79 0.47 0.25 0.19 0.30 0.45 0.47 0.44 0.41 0.39 0.36 0.28 0.23 0.21 0.19 0.21 0.24 0.19 0.20 0.22 0.39 0.42 0.45 0.44 0.40 0.38 0.45 0.36 0.39 0.35
1.06 1.04 1.04 1.05 0.95 0.89 0.75 0.71 0.92 0.88 0.84 0.88 0.75 0.71 0.67 0.80 0.83 0.68 0.41 0.28 0.28 0.48 0.53 0.53 0.41 0.40 0.37 0.37 0.27 0.23 0.21 0.23 0.23 0.25 0.28 0.25 0.21 0.37 0.42 0.41 0.40 0.38 0.45 0.37 0.38 0.27 0.26
1.02 1.06 1.02 0.95 0.98 0.93 0.72 0.69 0.93 0.88 0.82 0.87 0.80 0.56 0.69 0.81 0.76 0.53 0.33 0.34 0.32 0.51 0.55 0.50 0.44 0.46 0.46 0.42 0.36 0.24 0.21 0.24 0.27 0.30 0.30 0.27 0.26 0.26 0.39 0.34 0.34 0.33 0.37 0.41 0.40 0.39 0.31
1.02 1.05 0.92 0.93 0.99 0.95 0.71 0.68 0.90 0.87 0.84 0.90 0.76 0.55 0.79 0.80 0.44 0.46 0.35 0.38 0.35 0.38 0.46 0.47 0.49 0.54 0.51 0.50 0.42 0.38 0.23 0.22 0.27 0.31 0.28 0.30 0.27 0.25 0.31 0.38 0.37 0.34 0.32 0.38 0.35 0.31 0.36
1.01 1.02 0.91 0.93 0.98 0.95 0.75 0.67 0.83 0.89 0.91 0.87 0.72 0.66 0.83 0.73 0.37 0.35 0.41 0.37 0.36 0.41 0.45 0.44 0.52 0.55 0.57 0.55 0.49 0.45 0.35 0.28 0.30 0.29 0.27 0.32 0.26 0.22 0.27 0.32 0.35 0.33 0.37 0.37 0.40 0.43 0.35
0.98 1.01 0.95 0.90 0.94 0.93 0.82 0.66 0.80 0.88 0.96 0.88 0.78 0.55 0.61 0.64 0.58 0.44 0.40 0.38 0.41 0.58 0.57 0.62 0.60 0.63 0.60 0.55 0.62 0.53 0.49 0.49 0.44 0.31 0.35 0.35 0.29 0.24 0.20 0.26 0.33 0.31 0.42 0.41 0.39 0.32 0.34
0.95 1.00 0.99 0.90 0.87 0.89 0.85 0.68 0.73 0.83 1.04 0.92 0.85 0.71 0.70 0.56 0.59 0.58 0.53 0.52 0.49 0.54 0.68 0.75 0.65 0.65 0.59 0.50 0.55 0.54 0.60 0.55 0.54 0.51 0.40 0.31 0.25 0.27 0.27 0.31 0.33 0.33 0.36 0.45 0.43 0.46 0.40
0.91 0.99 1.02 0.95 0.86 0.85 0.86 0.78 0.66 0.80 0.96 0.91 0.72 0.75 0.88 0.76 0.79 0.69 0.56 0.56 0.52 0.65 0.71 0.65 0.63 0.70 0.66 0.59 0.57 0.57 0.66 0.61 0.54 0.57 0.46 0.38 0.26 0.28 0.27 0.32 0.36 0.33 0.38 0.41 0.49 0.50 0.52
0.89 0.96 1.00 0.99 0.91 0.86 0.85 0.83 0.75 0.69 0.78 0.76 0.83 0.90 0.88 0.76 0.72 0.68 0.66 0.64 0.59 0.71 0.76 0.77 0.73 0.67 0.62 0.70 0.78 0.84 0.84 0.81 0.75 0.61 0.53 0.46 0.30 0.27 0.24 0.32 0.35 0.28 0.35 0.40 0.48 0.57 0.57
0.80 0.86 0.90 0.96 0.97 0.93 0.90 0.86 0.80 0.75 0.69 0.72 0.77 0.81 0.73 0.66 0.68 0.68 0.73 0.70 0.64 0.70 0.65 0.75 0.76 0.68 0.75 0.91 0.88 0.90 0.85 0.78 0.77 0.74 0.73 0.52 0.42 0.32 0.27 0.33 0.24 0.36 0.52 0.52 0.55 0.64 0.70
0.74 0.72 0.73 0.77 0.89 0.93 0.91 0.89 0.84 0.79 0.76 0.61 0.77 0.75 0.71 0.58 0.73 0.71 0.73 0.74 0.75 0.77 0.71 0.70 0.76 0.81 0.89 0.75 0.59 0.54 0.61 0.60 0.69 0.76 0.73 0.69 0.52 0.38 0.31 0.29 0.39 0.47 0.50 0.48 0.50 0.59 0.76
0.74 0.74 0.72 0.73 0.79 0.89 0.87 0.82 0.81 0.79 0.77 0.67 0.71 0.86 0.74 0.51 0.55 0.75 0.73 0.80 0.71 0.72 0.71 0.79 0.91 1.00 0.90 0.73 0.63 0.48 0.45 0.57 0.57 0.64 0.75 0.72 0.66 0.50 0.42 0.31 0.28 0.44 0.63 0.73 0.69 0.43 0.74
0.71 0.73 0.73 0.74 0.77 0.80 0.81 0.80 0.77 0.76 0.77 0.70 0.62 0.78 0.76 0.55 0.64 0.77 0.70 0.73 0.89 0.82 0.75 0.85 0.85 0.87 0.96 0.74 0.59 0.55 0.51 0.70 0.55 0.53 0.55 0.57 0.59 0.50 0.49 0.42 0.51 0.70 0.76 0.83 0.47 0.45 0.76
0.69 0.68 0.66 0.68 0.70 0.73 0.74 0.75 0.74 0.74 0.75 0.72 0.61 0.77 0.69 0.64 0.61 0.71 0.83 0.77 0.79 0.86 0.74 0.84 0.88 0.90 0.85 0.67 0.63 0.62 0.58 0.63 0.60 0.62 0.60 0.56 0.53 0.53 0.59 0.51 0.45 0.85 0.76 0.59 0.70 0.84 0.87
0.70 0.67 0.67 0.69 0.70 0.71 0.71 0.71 0.72 0.72 0.74 0.77 0.52 0.75 0.73 0.60 0.62 0.72 0.75 0.87 0.89 0.89 0.83 0.89 0.86 0.90 0.93 0.80 0.77 0.73 0.63 0.71 0.66 0.53 0.77 0.55 0.66 0.63 0.69 0.65 0.91 0.96 0.87 0.96 0.99 0.89 0.89

GFSGBSN_prec_pwat_240.txt.gz
Precipitable_Water
0.89 0.89 0.87 0.84 0.80 0.78 0.78 0.76 0.79 0.78 0.74 0.73 0.72 0.72 0.73 0.72 0.70 0.68 0.67 0.66 0.65 0.62 0.60 0.56 0.59 0.64 0.46 0.16 0.15 0.26 0.43 0.53 0.45 0.36 0.54 0.77 0.73 0.67 0.59 0.63 0.69 0.68 0.77 0.84 0.89 0.97 0.96
0.88 0.90 0.91 0.89 0.86 0.81 0.78 0.76 0.76 0.77 0.76 0.73 0.73 0.71 0.71 0.72 0.70 0.68 0.67 0.65 0.63 0.62 0.62 0.58 0.61 0.66 0.37 0.11 0.17 0.36 0.35 0.35 0.34 0.27 0.56 0.75 0.74 0.74 0.66 0.65 0.65 0.70 0.68 0.70 0.84 0.90 0.96
0.85 0.88 0.91 0.92 0.90 0.87 0.80 0.78 0.76 0.75 0.76 0.75 0.73 0.72 0.71 0.71 0.71 0.69 0.67 0.64 0.61 0.61 0.61 0.58 0.62 0.61 0.37 0.18 0.28 0.36 0.33 0.34 0.33 0.26 0.54 0.68 0.74 0.70 0.68 0.62 0.73 0.68 0.62 0.67 0.65 0.75 0.81
0.87 0.88 0.90 0.92 0.93 0.91 0.88 0.79 0.78 0.76 0.74 0.75 0.74 0.73 0.72 0.71 0.70 0.69 0.67 0.63 0.59 0.59 0.58 0.60 0.63 0.56 0.28 0.30 0.28 0.29 0.31 0.29 0.36 0.30 0.53 0.61 0.69 0.69 0.64 0.68 0.69 0.61 0.65 0.51 0.63 0.75 0.82
0.91 0.92 0.93 0.92 0.94 0.95 0.92 0.88 0.78 0.77 0.75 0.73 0.75 0.73 0.72 0.72 0.71 0.69 0.66 0.61 0.57 0.58 0.60 0.62 0.50 0.40 0.27 0.40 0.21 0.25 0.30 0.26 0.32 0.32 0.51 0.65 0.70 0.62 0.64 0.55 0.53 0.59 0.50 0.51 0.55 0.71 0.77
0.97 0.96 0.96 0.96 0.96 0.96 0.96 0.92 0.83 0.77 0.77 0.73 0.75 0.74 0.73 0.73 0.73 0.70 0.66 0.59 0.60 0.58 0.60 0.61 0.54 0.32 0.36 0.25 0.25 0.26 0.31 0.32 0.30 0.37 0.43 0.56 0.59 0.52 0.57 0.52 0.44 0.49 0.50 0.52 0.55 0.68 0.79
1.05 1.01 1.01 1.00 0.98 0.98 0.97 0.95 0.88 0.78 0.77 0.74 0.75 0.75 0.74 0.75 0.74 0.72 0.64 0.50 0.34 0.31 0.39 0.24 0.27 0.28 0.34 0.37 0.32 0.22 0.28 0.29 0.27 0.35 0.37 0.53 0.42 0.41 0.51 0.54 0.60 0.56 0.54 0.53 0.62 0.77 0.79
1.05 1.00 1.00 1.01 1.00 0.98 0.97 0.96 0.91 0.79 0.78 0.75 0.76 0.76 0.76 0.76 0.76 0.73 0.66 0.36 0.40 0.42 0.24 0.36 0.32 0.31 0.38 0.39 0.26 0.21 0.26 0.21 0.20 0.22 0.43 0.44 0.34 0.47 0.51 0.58 0.54 0.55 0.54 0.56 0.69 0.76 0.74
1.05 0.99 0.99 1.00 0.99 0.98 0.96 0.97 0.91 0.79 0.77 0.77 0.78 0.78 0.78 0.78 0.77 0.68 0.55 0.43 0.62 0.58 0.27 0.26 0.36 0.31 0.36 0.40 0.27 0.21 0.20 0.21 0.18 0.20 0.34 0.34 0.38 0.44 0.51 0.52 0.48 0.56 0.56 0.56 0.58 0.73 0.83
1.06 0.99 1.00 1.00 0.99 0.98 0.97 0.95 0.89 0.75 0.77 0.79 0.80 0.80 0.81 0.81 0.64 0.64 0.49 0.64 0.67 0.58 0.19 0.17 0.24 0.32 0.38 0.37 0.26 0.27 0.20 0.20 0.20 0.18 0.29 0.36 0.44 0.40 0.46 0.47 0.51 0.48 0.61 0.60 0.55 0.56 0.52
1.02 1.00 1.01 1.00 1.00 0.98 0.97 0.92 0.82 0.72 0.79 0.83 0.83 0.83 0.84 0.82 0.67 0.54 0.58 0.70 0.61 0.47 0.08 0.27 0.27 0.47 0.41 0.27 0.24 0.23 0.20 0.22 0.19 0.18 0.26 0.31 0.39 0.42 0.43 0.53 0.58 0.57 0.60 0.54 0.52 0.50 0.56
0.97 1.01 1.02 1.01 1.01 0.98 0.93 0.86 0.70 0.75 0.83 0.85 0.87 0.88 0.87 0.77 0.73 0.70 0.72 0.69 0.52 0.20 0.09 0.30 0.34 0.30 0.28 0.28 0.22 0.22 0.17 0.26 0.27 0.23 0.25 0.31 0.42 0.43 0.49 0.52 0.52 0.54 0.51 0.50 0.51 0.49 0.41
0.98 1.05 1.01 1.02 1.02 0.98 0.86 0.78 0.68 0.83 0.87 0.89 0.93 0.91 0.85 0.82 0.57 0.79 0.73 0.49 0.22 0.12 0.27 0.35 0.28 0.33 0.26 0.23 0.22 0.19 0.16 0.20 0.19 0.16 0.16 0.24 0.34 0.40 0.46 0.44 0.49 0.52 0.45 0.36 0.33 0.35 0.34
1.04 1.04 1.02 1.03 1.04 0.91 0.83 0.70 0.73 0.91 0.91 0.93 0.93 0.88 0.84 0.80 0.81 0.80 0.59 0.34 0.14 0.19 0.30 0.45 0.44 0.40 0.30 0.25 0.23 0.21 0.19 0.18 0.22 0.22 0.19 0.17 0.23 0.36 0.41 0.43 0.44 0.42 0.39 0.32 0.29 0.28 0.32
1.04 1.02 1.02 1.02 0.96 0.92 0.82 0.67 0.86 0.92 0.93 0.92 0.93 0.84 0.75 0.77 0.84 0.78 0.44 0.23 0.20 0.31 0.41 0.44 0.44 0.40 0.36 0.34 0.26 0.22 0.20 0.18 0.20 0.22 0.18 0.18 0.23 0.37 0.41 0.50 0.45 0.40 0.36 0.44 0.38 0.41 0.32
1.03 1.03 1.02 0.92 0.94 0.96 0.78 0.67 0.91 0.90 0.87 0.90 0.80 0.72 0.69 0.83 0.87 0.67 0.40 0.27 0.31 0.47 0.48 0.49 0.36 0.40 0.36 0.35 0.28 0.26 0.22 0.22 0.20 0.22 0.26 0.24 0.20 0.33 0.40 0.45 0.46 0.42 0.46 0.35 0.38 0.28 0.24
1.00 1.01 0.98 0.89 0.95 0.96 0.78 0.67 0.89 0.90 0.84 0.92 0.80 0.53 0.73 0.84 0.82 0.53 0.33 0.31 0.35 0.52 0.50 0.44 0.39 0.37 0.43 0.37 0.36 0.26 0.24 0.24 0.25 0.24 0.25 0.25 0.24 0.28 0.38 0.37 0.38 0.39 0.35 0.37 0.40 0.38 0.27
0.90 0.99 0.98 0.90 0.93 0.94 0.81 0.68 0.82 0.90 0.88 0.88 0.83 0.44 0.77 0.83 0.47 0.50 0.38 0.39 0.39 0.41 0.44 0.42 0.42 0.47 0.48 0.49 0.41 0.35 0.26 0.25 0.27 0.30 0.25 0.26 0.24 0.21 0.28 0.40 0.43 0.38 0.31 0.33 0.27 0.28 0.36
0.87 0.93 0.99 0.91 0.90 0.91 0.85 0.68 0.79 0.90 1.00 0.85 0.66 0.60 0.79 0.73 0.35 0.37 0.42 0.38 0.37 0.36 0.43 0.48 0.42 0.52 0.56 0.52 0.45 0.46 0.44 0.42 0.30 0.28 0.28 0.31 0.24 0.19 0.24 0.33 0.39 0.32 0.36 0.38 0.39 0.36 0.29
0.86 0.92 0.98 0.94 0.86 0.86 0.86 0.70 0.76 0.86 1.03 0.93 0.80 0.50 0.61 0.62 0.56 0.41 0.41 0.40 0.35 0.48 0.53 0.55 0.54 0.59 0.55 0.55 0.61 0.53 0.54 0.55 0.47 0.34 0.33 0.31 0.28 0.24 0.19 0.24 0.34 0.32 0.35 0.39 0.41 0.31 0.30
0.84 0.91 0.98 0.99 0.89 0.83 0.85 0.79 0.67 0.82 1.03 0.97 0.85 0.64 0.60 0.53 0.55 0.56 0.50 0.48 0.42 0.45 0.60 0.63 0.66 0.65 0.55 0.49 0.53 0.53 0.58 0.56 0.58 0.52 0.36 0.31 0.23 0.25 0.26 0.30 0.33 0.33 0.32 0.35 0.37 0.39 0.34
0.82 0.87 0.93 0.98 0.95 0.88 0.84 0.83 0.73 0.72 0.92 0.87 0.69 0.75 0.79 0.74 0.74 0.67 0.55 0.47 0.48 0.56 0.63 0.62 0.65 0.68 0.66 0.57 0.57 0.52 0.58 0.55 0.54 0.61 0.44 0.35 0.25 0.26 0.23 0.27 0.30 0.31 0.36 0.37 0.39 0.42 0.45
0.77 0.78 0.82 0.87 0.94 0.95 0.91 0.86 0.79 0.71 0.73 0.71 0.83 0.90 0.81 0.74 0.72 0.66 0.59 0.56 0.59 0.67 0.74 0.78 0.75 0.68 0.63 0.67 0.74 0.74 0.76 0.73 0.68 0.61 0.53 0.43 0.30 0.28 0.23 0.28 0.31 0.28 0.33 0.39 0.39 0.41 0.41
0.73 0.73 0.72 0.72 0.78 0.90 0.93 0.89 0.86 0.78 0.72 0.64 0.74 0.80 0.65 0.58 0.67 0.65 0.70 0.70 0.65 0.68 0.68 0.80 0.79 0.71 0.80 0.96 0.92 0.87 0.81 0.79 0.75 0.73 0.74 0.52 0.35 0.31 0.26 0.30 0.21 0.30 0.52 0.51 0.44 0.45 0.50
0.73 0.74 0.75 0.73 0.75 0.81 0.89 0.86 0.83 0.81 0.78 0.65 0.68 0.71 0.64 0.49 0.68 0.69 0.69 0.72 0.74 0.78 0.74 0.75 0.80 0.87 0.96 0.83 0.62 0.52 0.54 0.59 0.62 0.70 0.70 0.71 0.50 0.35 0.26 0.24 0.31 0.37 0.46 0.47 0.44 0.37 0.57
0.69 0.71 0.71 0.71 0.74 0.76 0.80 0.81 0.80 0.76 0.76 0.71 0.71 0.74 0.70 0.54 0.54 0.78 0.71 0.74 0.71 0.71 0.70 0.74 0.90 1.00 0.91 0.69 0.58 0.41 0.33 0.42 0.42 0.54 0.76 0.70 0.69 0.50 0.37 0.27 0.23 0.34 0.55 0.69 0.65 0.36 0.65
0.71 0.68 0.66 0.66 0.68 0.70 0.73 0.75 0.75 0.74 0.73 0.71 0.66 0.79 0.62 0.55 0.62 0.74 0.62 0.68 0.85 0.81 0.72 0.76 0.78 0.82 0.89 0.63 0.51 0.45 0.43 0.58 0.42 0.44 0.48 0.58 0.60 0.51 0.45 0.38 0.40 0.54 0.67 0.75 0.40 0.37 0.70
0.71 0.70 0.68 0.68 0.68 0.69 0.70 0.71 0.72 0.73 0.72 0.70 0.66 0.76 0.62 0.51 0.62 0.68 0.74 0.74 0.81 0.84 0.75 0.82 0.83 0.87 0.80 0.64 0.59 0.58 0.53 0.57 0.56 0.57 0.54 0.52 0.52 0.53 0.56 0.49 0.38 0.76 0.72 0.55 0.65 0.75 0.80
0.67 0.68 0.69 0.69 0.68 0.67 0.66 0.67 0.67 0.70 0.72 0.73 0.60 0.76 0.75 0.51 0.53 0.76 0.74 0.85 0.90 0.89 0.84 0.85 0.82 0.87 0.93 0.78 0.76 0.71 0.61 0.66 0.63 0.46 0.72 0.53 0.62 0.57 0.60 0.60 0.82 0.90 0.86 0.93 0.93 0.85 0.89